Regional Weather Roundup
Issued by NWS

Home | Current Version | Previous Version | Text Only | Print | Product List | Glossary On
Versions: 1 2 3 4 5 6 7 8 9 10 11 12 13 14 15 16 17 18 19 20 21 22 23 24 25 26 27 28 29 30 31 32 33 34 35 36 37 38 39 40 41 42 43 44 45 46 47 48 49 50
000
ASUS43 KLOT 242010
RWRIL

ILLINOIS REGIONAL WEATHER ROUNDUP
NATIONAL WEATHER SERVICE CHICAGO/ROMEOVILLE IL
300 PM CDT FRI OCT 24 2014

NOTE: "FAIR" INDICATES FEW OR NO CLOUDS BELOW 12,000 FEET WITH NO
SIGNIFICANT WEATHER AND/OR OBSTRUCTIONS TO VISIBILITY.

* THESE STATIONS ARE NOT UNDER NWS QUALITY CONTROL. THEY ALSO MAY NOT
  REPORT WEATHER SUCH AS PRECIPITATION OR FOG.

ILZ001-002-007-009-015-016-024-242100-
NORTHWEST ILLINOIS

CITY           SKY/WX    TMP DP  RH WIND       PRES   REMARKS
MOLINE         MOSUNNY   68  51  54 SW14G23   29.95F HAZE
STERLING*      MOSUNNY   66  52  59 SW6       29.97F
SAVANNA*       MOSUNNY   65  53  65 SW3       29.96F
$$

ILZ003-004-008-010-011-017-018-242100-
NORTH CENTRAL ILLINOIS

CITY           SKY/WX    TMP DP  RH WIND       PRES   REMARKS
ROCKFORD       PTSUNNY   62  53  72 SW5       29.99F
FREEPORT*      SUNNY     59  50  71 SW8       29.99F
ROCHELLE*      SUNNY     65  48  54 S12       29.99F
DE KALB*       SUNNY     65  48  53 SW6       29.98F
PERU*          SUNNY     67  46  46 SW8       29.99F
$$

ILZ005-006-012>014-019>023-242100-
NORTHEAST ILLINOIS

CITY           SKY/WX    TMP DP  RH WIND       PRES   REMARKS
CHICAGO-OHARE  PTSUNNY   66  47  50 W8        29.96F
CHICAGO-MIDWAY MOSUNNY   67  50  54 W6        29.97F
AURORA         SUNNY     68  49  50 SW7       29.98F
LANSING*       SUNNY     65  50  58 SW3       29.98F
JOLIET*        SUNNY     67  47  48 SW8       29.98F
WAUKEGAN       SUNNY     58  51  78 SE7       29.97F
DUPAGE AIRPORT SUNNY     68  47  46 SW12      29.97F
KANKAKEE*      SUNNY     68  48  48 SW10      29.99F
WHEELING       SUNNY     68  48  48 SW8       29.98F
MORRIS*        SUNNY     69  49  49 SW5       29.97F
ROMEOVILLE*    SUNNY     67  45  44 W7        29.98F
NORTHERLY ISL    N/A     58  51  78 E6          N/A
$$

LMZ740>746-242100-
SOUTHERN LAKE MICHIGAN

STATION/POSITION SKY/WX   TEMP    WIND        PRES    VSBY  WAVE
                          AIR SEA DIR/SP/G                  HT/PER
                          (F)     (DEG/KT/KT) (MB)    (MI)  (FT/S)
SOUTHERN BUOY              52 54  210/  6/  8 1015.4F         1
WAUKEGAN HARBOR            55     100/  4/  5   N/A
HARRISON CRIB              56     120/  7/  9   N/A
BURNHAM HARBOR             58      70/  5/  9   N/A
CALUMET HARBOR             64     210/  4/  7 1013.8F
MICHIGAN CITY              56     350/  5/  6   N/A
$$

ILZ025>027-034>036-040-047-049-050-058-095>099-242100-
WEST-CENTRAL ILLINOIS

CITY           SKY/WX    TMP DP  RH WIND       PRES   REMARKS
QUINCY         PTSUNNY   66  56  70 S13       29.99F
GALESBURG*     MOSUNNY   66  52  62 S10G16    29.99F
MACOMB*        MOSUNNY   69  57  65 SW8       30.01F
JACKSONVILLE*  MOSUNNY   72  53  52 S9        30.02F
PITTSFIELD*    MOSUNNY   71  52  52 S10       30.03F
$$

ILZ028>032-037-038-041>044-048-051>054-059>061-242100-
CENTRAL ILLINOIS

CITY           SKY/WX    TMP DP  RH WIND       PRES   REMARKS
PONTIAC        SUNNY     71  45  39 SW10      29.99F
BLOOMINGTON    LGT RAIN  69  50  50 SW9       30.01F
DECATUR        MOSUNNY   63  56  78 SW13      30.04F
PEORIA         MOSUNNY   64  54  69 SW9       30.01F
LACON*         MOSUNNY   66  51  57 SW8       29.98F
LINCOLN*       MOSUNNY   64  55  73 SW5       30.00F
SPRINGFIELD    MOSUNNY   68  56  65 CALM      30.02F
TAYLORVILLE    MOSUNNY   63  54  72 S5        30.04F
$$

ILZ033-039-045-046-055>057-062-063-242100-
EAST-CENTRAL ILLINOIS

CITY           SKY/WX    TMP DP  RH WIND       PRES   REMARKS
CHAMPAIGN      MOSUNNY   69  51  52 SW12      30.02F
DANVILLE*      PTSUNNY   66  54  65 W8        29.99F
RANTOUL*       SUNNY     70  50  49 SW6       30.01S
MATTOON        PTSUNNY   69  52  54 W8        30.02F
PARIS*         PTSUNNY   70  54  55 SW3       30.02F
$$

ILZ079-100>102-242100-
SOUTHWEST ILLINOIS

CITY           SKY/WX    TMP DP  RH WIND       PRES   REMARKS
ALTON          MOSUNNY   70  52  52 W6        30.05F
CAHOKIA*       SUNNY     73  50  44 W6        30.04F
SPARTA*        SUNNY     69  53  55 SW3       30.06F
$$

ILZ064>066-069>071-074>076-080>082-084>086-088>090-092>094-242100-
SOUTH-CENTRAL ILLINOIS

CITY           SKY/WX    TMP DP  RH WIND       PRES   REMARKS
CARBONDALE     MOSUNNY   70  53  54 VRB3      30.06F
CAIRO*         MOSUNNY   74  53  48 W8        30.07S
EFFINGHAM*     MOSUNNY   68  50  52 W7        30.04F
MARION         MOSUNNY   68  55  64 W7        30.07F
MT. VERNON     PTSUNNY   70  55  60 CALM      30.06F
CENTRALIA*     MOSUNNY   68  53  59 W6        30.05F
SALEM*         MOSUNNY   70  58  65 W8        30.05F
METROPOLIS*    PTSUNNY   71  56  59 W6        30.06S
$$

ILZ067-068-072-073-078-083-087-091-242100-
SOUTHEAST ILLINOIS

CITY           SKY/WX    TMP DP  RH WIND       PRES   REMARKS
LAWRENCEVILLE  PTSUNNY   70  53  54 SW7       30.05F
FLORA*         PTSUNNY   69  52  54 W6        30.04F
FAIRFIELD*     PTSUNNY   71  52  52 W6        30.04F
HARRISBURG*    PTSUNNY   71  56  59 NW6       30.07S
ROBINSON*      PTSUNNY   73  54  51 SW7       30.05F
CARMI*         MOSUNNY   72  56  56 SW7       30.05S
$$

ABBREVIATIONS USED IN REMARKS
   TC - TEMPERATURE IN CELSIUS
  WCI - WIND CHILL INDEX
   HX - HEAT INDEX
  VSB - VISIBILITY
$$




USA.gov is the U.S. government's official web portal to all federal, state and local government web resources and services.